Tracking 19219 objects as of 19-Jul-2018
HD Live streaming from Space Station
objects crossing your sky now

FENGYUN 1C DEB

Track FENGYUN 1C DEB now!
10-day predictions


NORAD ID: 32332
Int'l Code: 1999-025CXZ
Perigee: 717.7 km
Apogee: 1,178.4 km
Inclination: 99.4 °
Period: 103.9 minutes
Semi major axis: 7319 km
RCS: 0.0123 m2 (small)
Launch date: May 10, 1999
Source: People's Republic of China (PRC)
Launch site: Taiyaun Space Center, China (TSC)

Note: This is SATELLITE DEBRIS
aabbcc
Your satellite tracking list
Your tracking list is empty




NASA's NSSDC Master Catalog

Two Line Element Set (TLE):
1 32332U 99025CXZ 18184.32925127  .00000664  00000-0  41190-3 0  9995
2 32332  99.3518 218.4592 0314761  93.7141 273.2609 13.86504611553768
Source of the keplerian elements: AFSPC